Regional Weather Roundup
Issued by NWS Goodland, KS

Home | Current Version | Previous Version | Graphics & Text | Print | Product List | Glossary On
Versions: 1 2 3 4 5 6 7 8 9 10 11 12 13 14 15 16 17 18 19 20 21 22 23 24 25 26 27 28 29 30 31 32 33 34 35 36 37 38 39 40 41 42 43 44 45 46 47 48 49 50
000
ASUS43 KGLD 260359
RWRGLD

GOODLAND FORECAST AREA HOURLY WEATHER ROUNDUP
NATIONAL WEATHER SERVICE GOODLAND KS
900 PM MST TUE NOV 25 2014

...OFFICIAL OBSERVATIONS...

CITY           SKY/WX    TMP DP  RH WIND       PRES   REMARKS
GOODLAND KS    LGT RAIN  39  33  79 N14       29.99R
HILL CITY KS   CLOUDY    48  24  39 NW14      29.91R
IMPERIAL NEB   CLOUDY    40  30  67 NW17      29.95R
MCCOOK NEB     CLOUDY    43  31  62 NW13      29.93R
AKRON CO       LGT SNOW  32  31  96 N12       30.02R FOG
BURLINGTON CO  CLOUDY    38  30  73 N14G24    30.00R
LIMON CO       MOCLDY    35  21  56 N20       29.99R
$$

...UNOFFICIAL OBSERVATIONS...

CITY           SKY/WX    TMP DP  RH WIND       PRES   REMARKS
COLBY KS       DRIZZLE   41  37  87 NW12      29.98R
GOVE KS          N/A     47  32  56 MISG        N/A
NORTON KS      CLOUDY    41  19  42 NW10      29.91R
SHARON SPRINGS   N/A     42  27  54 N7          N/A
TRIBUNE KS     MOCLDY    41  27  56 N14       29.97R
TRENTON NEB      N/A     42  32  68 NW12        N/A
YUMA CO          N/A     36  30  78 N15         N/A
$$



USA.gov is the U.S. government's official web portal to all federal, state and local government web resources and services.